Location: Mitford
(51.2012°N, 114.5253°W)
Time: 02:42:07
(UTC+00:00)

OTV 5 (USA 277) - Visible Passes

Search period start: 22 August 2019 00:00
Search period end: 01 September 2019 00:00
Orbit: 305 x 329 km, 54.5° (Epoch: 20 August)

Date Brightness Start Highest point End Pass type
(mag) Time Alt. Az. Time Alt. Az. Time Alt. Az.
22 Aug ? 10:16:18 12° ESE 10:16:18 12° ESE 10:16:33 10° ESE visible
22 Aug ? 11:47:19 11° SW 11:47:48 12° SW 11:48:48 10° SSW visible
24 Aug ? 04:23:10 10° SSW 04:23:23 11° SSW 04:23:23 11° SSW visible
25 Aug ? 04:37:17 10° SW 04:38:56 31° SSW 04:38:56 31° SSW visible
26 Aug ? 03:18:27 10° S 03:20:25 18° SE 03:22:25 10° E visible
26 Aug ? 04:51:47 10° WSW 04:53:53 49° W 04:53:53 49° W visible
27 Aug ? 03:32:16 10° SW 03:34:48 37° SSE 03:37:20 10° ENE visible
27 Aug ? 05:06:27 10° W 05:08:24 37° WNW 05:08:24 37° WNW visible
28 Aug ? 03:46:36 10° WSW 03:49:18 76° SSE 03:51:46 12° ENE visible
28 Aug ? 05:21:11 10° WNW 05:22:39 25° WNW 05:22:39 25° WNW visible
29 Aug ? 04:01:11 10° W 04:03:53 61° NNW 04:05:53 16° ENE visible
29 Aug ? 05:35:55 10° WNW 05:36:45 17° WNW 05:36:45 17° WNW visible
30 Aug ? 04:15:55 10° W 04:18:32 43° N 04:19:52 23° NE visible
30 Aug ? 05:50:33 10° WNW 05:50:44 11° WNW 05:50:44 11° WNW visible
31 Aug ? 04:30:39 10° WNW 04:33:13 37° N 04:33:47 32° NNE visible
